Overview Statistics Trail Chart Weather Telemetry Raw packets
 

This is the latest recevied weather packets stored in our database for station/object N2ZVN. If no packets are shown the sender has not sent any weather packets the latest 10 day(s).

<< 111 112 113 114 >>
Time Temp. Humidity Pressure Rain* Wind** Luminosity Snow
1787863273 22.78° C 90% 1012.6 hPa 0 mm - 67 W/m² -
1787862969 22.22° C 90% 1012.6 hPa 0 mm - 74 W/m² -
1787862664 21.67° C 93% 1012.6 hPa 0 mm - 108 W/m² -
1787862359 21.67° C 93% 1012.6 hPa 0 mm - 94 W/m² -
1787862055 21.67° C 93% 1012.7 hPa 0 mm - 71 W/m² -
1787861754 21.67° C 93% 1012.8 hPa 0 mm - 47 W/m² -
1787861453 21.67° C 93% 1012.9 hPa 0 mm - 44 W/m² -
1787861147 21.67° C 93% 1013 hPa 0 mm - 56 W/m² -
1787860846 21.67° C 93% 1013 hPa 0 mm - 58 W/m² -
1787860541 21.67° C 92% 1013.2 hPa 0 mm - 48 W/m² -
1787860236 22.22° C 91% 1013.1 hPa 0 mm - 45 W/m² -
1787859932 22.22° C 92% 1013 hPa 0 mm - 47 W/m² -
1787859627 21.67° C 91% 1012.9 hPa 0 mm - 130 W/m² -
1787859023 21.11° C 94% 1013.1 hPa 0 mm - 116 W/m² -
1787858724 21.11° C 96% 1013 hPa 0 mm - 98 W/m² -
1787858414 20.56° C 95% 1013.2 hPa 0 mm - 108 W/m² -
1787858114 20.56° C 95% 1013.4 hPa 0 mm - 68 W/m² -
1787857809 20.56° C 96% 1013.3 hPa 0 mm - 65 W/m² -
1787857504 20.56° C 97% 1013.7 hPa 0 mm - 102 W/m² -
1787857203 20° C 96% 1013.6 hPa 0 mm - 186 W/m² -
1787856898 20° C 96% 1013.6 hPa 0 mm - 74 W/m² -
1787856597 19.44° C 96% 1013.5 hPa 1.78 mm - 27 W/m² -

* Rain latest hour (hover to see other rain measurements)
** Current wind speed in m/s (hover to see current wind gust speed)